Regional Weather Roundup
Issued by NWS

Home | Current Version | Previous Version | Graphics & Text | Print | Product List | Glossary On
Versions: 1 2 3 4 5 6 7 8 9 10 11 12 13 14 15 16 17 18 19 20 21 22 23 24 25 26 27 28 29 30 31 32 33 34 35 36 37 38 39 40 41 42 43 44 45 46 47 48 49 50
000
ASUS43 KTOP 312208
RWRKS

WEATHER ROUNDUP FOR KANSAS
NATIONAL WEATHER SERVICE GOODLAND KS
500 PM CDT FRI OCT 31 2014

NOTE:  "FAIR" INDICATES FEW OR NO CLOUDS BELOW 12,000 FEET WITH NO
SIGNIFICANT WEATHER AND/OR OBSTRUCTIONS TO VISIBILITY.

KSZ001>006-013>018-027>032-041>047-312300-
NORTHWEST KANSAS

CITY           SKY/WX    TMP DP  RH WIND       PRES   REMARKS
GOODLAND       SUNNY     48  26  42 SE18      30.31F
HAYS           SUNNY     46  14  27 E9        30.42F
HILL CITY      SUNNY     46  12  25 SE10      30.41F
RUSSELL        SUNNY     45  16  31 E8        30.42F
$$

KSZ061>065-074>080-084>089-312300-
SOUTHWEST KANSAS

CITY           SKY/WX    TMP DP  RH WIND       PRES   REMARKS
DODGE CITY     SUNNY     49  17  28 E10       30.39F
ELKHART          N/A     58  28  32 SE16        N/A
GARDEN CITY    SUNNY     51  18  27 SE14G22   30.36F
GREAT BEND     SUNNY     46  16  29 E10       30.43S
LIBERAL        SUNNY     54  23  30 E13       30.38S
PRATT          SUNNY     46  16  29 E10       30.43R
$$

KSZ066>073-081>083-090>101-312300-
SOUTHEAST KANSAS

CITY           SKY/WX    TMP DP  RH WIND       PRES   REMARKS
CHANUTE        SUNNY     48  18  30 N12G18    30.43R
COFFEYVILLE    SUNNY     50  21  32 N15       30.42R
HUTCHINSON     SUNNY     49  17  28 E10       30.43F
MEDICINE LODGE   N/A     51  19  28 MISG      30.42R
NEWTON         SUNNY     46  16  29 NE7G16    30.45S
PARSONS        SUNNY     49  18  29 N9G17     30.44R
WICHITA INTL   MOSUNNY   51  14  22 NE14      30.43S
WICHITA JABRA  SUNNY     49  14  24 NE13      30.43R
WICHITA MCCONL SUNNY     49  12  22 NE9       30.43R
WINFIELD       SUNNY     51  16  24 NE12G32   30.43R
$$

KSZ007>012-019>026-033>040-048>060-102>105-312300-
NORTHEAST KANSAS

CITY           SKY/WX    TMP DP  RH WIND       PRES   REMARKS
CONCORDIA      SUNNY     45  14  28 NE5       30.46S
EMPORIA        SUNNY     46  15  28 N13       30.44S
LAWRENCE       SUNNY     46  18  32 N10       30.46S
MANHATTAN      SUNNY     47  16  29 NE9       30.46F
MARYSVILLE     SUNNY     45  14  29 NE6       30.46F
OLATHE IND     SUNNY     44  17  33 N9G18     30.45S
OLATHE EXE     SUNNY     46  15  28 N15       30.43S
SALINA         SUNNY     47  15  27 NE12      30.46F
TOPEKA BILLARD SUNNY     47  17  30 NE12      30.47S
TOPEKA FORBES  SUNNY     46  17  31 N10       30.45F
$$



USA.gov is the U.S. government's official web portal to all federal, state and local government web resources and services.